Content
SEND FEEDBACK

Daily
Averages
Monthly
Summary
Australia

MELBOURNE, VICTORIA


Home > Oceania > Australia > Victoria
Elevation: 433 feet     Latitude: 37 41S     Longitude: 144 51E

WEATHER
 
SELECT A DAY
Number of Records: 284,387;   Date Range: 7/1/96 - 7/28/14
 
SHARE

PRINT THIS DATA

[ ← Previous Day ]
WEATHER ALMANAC - JANUARY 23, 2013
[ Next Day → ]
[ °C ]   °F
Weather ElementAverageHighLow
Temperature65.3 °F73.4 °F (2:00 pm)59 °F (3:00 am)
Dewpoint48.6 °F54 °F (9:00 pm)40 °F (11:00 am)
Humidity54.6 %82 % (3:00 am)25 % (11:00 am)
Barometer30.02 in30.09 in (9:30 am)29.98 in (3:30 am)
Wind Speed16.2 mph21.9 mph (5:00 pm)
Weather ElementAverage
Visibility9 mi
Wind DirectionS (179 °)

Weather ElementTotal
Precipitation---
Cooling Degree Days1.2 (Base 65)
Growing Degree Days16.2 (Base 50)
Averaged from 62 records on January 23, 2013
WEATHER CONDITIONS BREAKOUT
WIND DIRECTION BREAKOUT
WEATHER BY HOUR - JANUARY 23, 2013
[ °C ]   °F
Local TimeTemperatureDewpointHumidityBarometerVisibilityWind DirectionWind SpeedGust SpeedPrecipitationEventsConditions
12:00 AM64.4 °F53.6 °F68 %30.01 in6.2 miSouth (190°)19.6 mphMostly Cloudy
12:30 AM62.6 °F50.0 °F63 %30.01 in6.2 miSouth (190°)16.1 mphMostly Cloudy
1:00 AM62.6 °F51.8 °F68 %30.01 inSouth (180°)10.4 mph
1:30 AM62.6 °F51.8 °F68 %30.01 in6.2 miSouth (190°)12.7 mphMostly Cloudy
2:00 AM62.0 °F52.0 °F62 %29.99 inSouth (190°)11.5 mph
2:00 AM62.6 °F51.8 °F68 %30.01 in6.2 miSouth (190°)11.5 mphMostly Cloudy
2:30 AM60.8 °F51.8 °F72 %30.01 in6.2 miSSW (200°)9.2 mphMostly Cloudy
3:00 AM59.0 °F53.6 °F82 %30.01 in6.2 miSW (220°)6.9 mphScattered Clouds
3:00 AM60.0 °F53.0 °F70 %30.00 in22.0 miSW (220°)6.9 mphPartly Cloudy
3:30 AM60.8 °F53.6 °F77 %29.98 in6.2 miSW (220°)8.1 mphMostly Cloudy
4:30 AM62.6 °F51.8 °F68 %29.98 in6.2 miSSE (160°)16.1 mphScattered Clouds
5:00 AM62.0 °F51.0 °F58 %29.99 inSSE (150°)15.0 mph
5:00 AM62.6 °F51.8 °F68 %30.01 in6.2 miSSE (150°)15.0 mphMostly Cloudy
5:30 AM60.8 °F50.0 °F68 %30.01 in6.2 miSSE (150°)17.3 mphMostly Cloudy
6:00 AM60.8 °F50.0 °F68 %30.01 in6.2 miSSE (150°)15.0 mphMostly Cloudy
6:00 AM61.0 °F50.0 °F57 %30.02 in19.0 miSSE (150°)15.0 mphPartly Cloudy
6:30 AM60.8 °F50.0 °F68 %30.04 in6.2 miSSE (150°)16.1 mphMostly Cloudy
7:00 AM60.8 °F50.0 °F68 %30.04 in6.2 miSE (140°)17.3 mphPartly Cloudy
7:30 AM60.8 °F50.0 °F68 %30.06 in6.2 miSE (130°)15.0 mphPartly Cloudy
8:00 AM62.0 °F50.0 °F56 %30.06 inESE (120°)18.4 mph
8:00 AM62.6 °F50.0 °F63 %30.06 in6.2 miESE (120°)18.4 mphScattered Clouds
8:30 AM62.6 °F48.2 °F59 %30.06 in6.2 miESE (120°)17.3 mphScattered Clouds
9:00 AM64.4 °F48.2 °F56 %30.06 in6.2 miSE (130°)17.3 mphScattered Clouds
9:00 AM64.0 °F48.0 °F45 %30.08 in19.0 miSE (130°)17.3 mphPartly Cloudy
9:30 AM62.6 °F46.4 °F55 %30.09 in6.2 miSSE (150°)18.4 mphScattered Clouds
10:00 AM66.2 °F44.6 °F46 %30.06 in6.2 miSSE (150°)18.4 mphPartly Cloudy
10:30 AM68.0 °F42.8 °F40 %30.06 in6.2 miSSE (160°)19.6 mphPartly Cloudy
11:00 AM68.0 °F40.0 °F25 %30.07 inSE (140°)18.4 mph
11:00 AM68.0 °F41.0 °F37 %30.06 in6.2 miSE (140°)18.4 mphPartly Cloudy
11:30 AM69.8 °F41.0 °F35 %30.06 in6.2 miSE (130°)17.3 mphPartly Cloudy
12:00 PM69.8 °F44.6 °F40 %30.06 in6.2 miSSE (160°)16.1 mphPartly Cloudy
12:00 PM70.0 °F45.0 °F29 %30.06 in19.0 miSSE (160°)16.1 mphPartly Cloudy
12:30 PM71.6 °F42.8 °F35 %30.04 in6.2 miSouth (170°)17.3 mphPartly Cloudy
1:00 PM71.6 °F44.6 °F38 %30.04 in6.2 miSSE (150°)17.3 mphPartly Cloudy
1:30 PM71.6 °F44.6 °F38 %30.04 in6.2 miSSW (200°)15.0 mphPartly Cloudy
2:00 PM73.0 °F45.0 °F26 %30.03 inSouth (180°)19.6 mph
2:00 PM73.4 °F44.6 °F36 %30.04 inSouth (180°)19.6 mphClear
2:30 PM71.6 °F46.4 °F41 %30.04 inSouth (190°)19.6 mphClear
3:00 PM71.6 °F44.6 °F38 %30.04 inSouth (190°)19.6 mphClear
3:00 PM72.0 °F44.0 °F26 %30.03 in19.0 miSouth (190°)19.6 mphPartly Cloudy
3:30 PM71.6 °F44.6 °F38 %30.01 inSouth (180°)18.4 mphClear
4:00 PM71.6 °F42.8 °F35 %30.01 inSouth (170°)19.6 mphClear
4:30 PM71.6 °F44.6 °F38 %30.01 inSouth (170°)20.7 mphClear
5:00 PM70.0 °F46.0 °F31 %30.01 inSouth (180°)21.9 mph
5:00 PM69.8 °F46.4 °F43 %30.01 inSouth (180°)21.9 mphClear
5:30 PM69.8 °F46.4 °F43 %30.01 inSouth (180°)21.9 mphClear
6:00 PM69.8 °F46.4 °F43 %30.01 inSouth (170°)21.9 mphClear
6:00 PM69.0 °F46.0 °F32 %30.00 in19.0 miSouth (170°)21.9 mphPartly Cloudy
6:30 PM68.0 °F46.4 °F46 %30.01 inSouth (180°)21.9 mphClear
7:00 PM66.2 °F48.2 °F52 %30.01 inSouth (190°)19.6 mphClear
7:30 PM66.2 °F48.2 °F52 %30.01 inSouth (190°)18.4 mphClear
8:00 PM65.0 °F51.0 °F52 %30.01 inSSW (200°)17.3 mph
8:00 PM64.4 °F51.8 °F64 %30.01 inSSW (200°)17.3 mphClear
8:30 PM64.4 °F53.6 °F68 %30.01 inSSW (210°)15.0 mphClear
9:00 PM62.6 °F53.6 °F72 %30.01 inSSW (210°)13.8 mphClear
9:00 PM63.0 °F54.0 °F65 %30.01 in19.0 miSSW (210°)13.8 mphPartly Cloudy
9:30 PM62.6 °F53.6 °F72 %30.01 inSW (230°)12.7 mphClear
10:00 PM60.8 °F53.6 °F77 %30.01 inWSW (250°)11.5 mphClear
10:30 PM60.8 °F53.6 °F77 %30.01 inWSW (250°)11.5 mphClear
11:00 PM60.0 °F54.0 °F76 %29.99 inWest (260°)10.4 mph
11:00 PM60.8 °F53.6 °F77 %29.98 inWest (260°)10.4 mphClear
11:30 PM59.0 °F53.6 °F82 %29.98 inWest (280°)6.9 mphClear
Hourly data recorded from YMML, located miles away from Melbourne, Victoria







STORIES FROM OUR PARTNERS